| time (UTC) | temp F | wind direction | speed knots | gust knots | rain 1hr in | rain 24hr in | rain mn in | humidity % | barometer mb |
| 20260906095239 | 63 | 42 | 3.5 | 5.2 | 0.00 | 0.00 | 0.00 | 100 | 1017.2 |
| 20260906094739 | 63 | 41 | 3.5 | 5.2 | 0.00 | 0.00 | 0.00 | 100 | 1017.2 |
| 20260906094233 | 63 | 41 | 3.5 | 5.2 | 0.00 | 0.00 | 0.00 | 99 | 1017.2 |
| 20260906093730 | 63 | 23 | 3.5 | 6.1 | 0.00 | 0.00 | 0.00 | 99 | 1017.2 |
| 20260906093219 | 63 | 44 | 1.7 | 2.6 | 0.00 | 0.00 | 0.00 | 99 | 1017.2 |
| 20260906092715 | 64 | 44 | 2.6 | 3.5 | 0.00 | 0.00 | 0.00 | 98 | 1017.2 |
| 20260906092214 | 64 | 37 | 5.2 | 7.0 | 0.00 | 0.00 | 0.00 | 97 | 1017.2 |
| 20260906091711 | 64 | 54 | 3.5 | 5.2 | 0.00 | 0.00 | 0.00 | 96 | 1016.9 |
| 20260906091207 | 64 | 41 | 3.5 | 6.1 | 0.00 | 0.00 | 0.00 | 96 | 1016.9 |
| 20260906090703 | 64 | 40 | 5.2 | 7.0 | 0.00 | 0.00 | 0.00 | 95 | 1016.9 |
| 20260906090202 | 64 | 41 | 5.2 | 8.7 | 0.00 | 0.00 | 0.00 | 95 | 1016.9 |
| 20260906085700 | 65 | 47 | 5.2 | 7.8 | 0.00 | 0.00 | 0.00 | 94 | 1016.5 |
| 20260906085154 | 65 | 37 | 7.0 | 9.6 | 0.00 | 0.00 | 0.00 | 94 | 1016.5 |
| 20260906084654 | 65 | 41 | 6.1 | 8.7 | 0.00 | 0.00 | 0.00 | 93 | 1016.5 |
| 20260906084149 | 66 | 41 | 5.2 | 7.8 | 0.00 | 0.00 | 0.00 | 93 | 1016.5 |
| 20260906083644 | 66 | 46 | 7.0 | 11.3 | 0.00 | 0.00 | 0.00 | 93 | 1016.5 |
| 20260906083139 | 65 | 51 | 6.1 | 10.4 | 0.00 | 0.00 | 0.00 | 93 | 1016.5 |
| 20260906082634 | 65 | 44 | 6.1 | 7.8 | 0.00 | 0.00 | 0.00 | 93 | 1016.5 |
| 20260906082130 | 65 | 45 | 6.1 | 9.6 | 0.00 | 0.00 | 0.00 | 93 | 1016.5 |
| 20260906081625 | 66 | 43 | 3.5 | 7.0 | 0.00 | 0.00 | 0.00 | 93 | 1016.5 |
| 20260906081115 | 66 | 46 | 5.2 | 7.8 | 0.00 | 0.00 | 0.00 | 93 | 1016.5 |
| 20260906080612 | 66 | 26 | 7.0 | 10.4 | 0.00 | 0.00 | 0.00 | 92 | 1016.5 |
| 20260906080108 | 66 | 39 | 3.5 | 5.2 | 0.00 | 0.00 | 0.00 | 91 | 1016.9 |
| 20260906075607 | 66 | 37 | 4.3 | 6.1 | 0.00 | 0.00 | 0.00 | 89 | 1016.9 |
| 20260906075101 | 66 | 30 | 6.1 | 7.8 | 0.00 | 0.00 | 0.00 | 89 | 1016.9 |
| 20260906074556 | 66 | 35 | 7.0 | 7.8 | 0.00 | 0.00 | 0.00 | 89 | 1016.9 |
| 20260906074049 | 66 | 37 | 5.2 | 8.7 | 0.00 | 0.00 | 0.00 | 90 | 1016.9 |
| 20260906073544 | 66 | 65 | 3.5 | 5.2 | 0.00 | 0.00 | 0.00 | 90 | 1016.5 |
| 20260906073041 | 66 | 34 | 5.2 | 7.0 | 0.00 | 0.00 | 0.00 | 89 | 1016.5 |
| 20260906072535 | 66 | 40 | 4.3 | 5.2 | 0.00 | 0.00 | 0.00 | 89 | 1016.9 |
| 20260906072031 | 66 | 45 | 4.3 | 6.1 | 0.00 | 0.00 | 0.00 | 88 | 1016.5 |
| 20260906071527 | 66 | 44 | 5.2 | 6.1 | 0.00 | 0.00 | 0.00 | 88 | 1016.5 |
| 20260906071022 | 66 | 53 | 3.5 | 6.1 | 0.00 | 0.00 | 0.00 | 88 | 1016.5 |
| 20260906070518 | 66 | 43 | 5.2 | 8.7 | 0.00 | 0.00 | 0.00 | 88 | 1016.5 |
| 20260906070009 | 66 | 27 | 4.3 | 7.0 | 0.00 | 0.00 | 0.00 | 89 | 1016.9 |
| 20260906065507 | 67 | 36 | 4.3 | 6.1 | 0.00 | 0.00 | 0.00 | 88 | 1016.9 |
| 20260906065003 | 67 | 39 | 5.2 | 7.8 | 0.00 | 0.00 | 0.00 | 89 | 1016.5 |
| 20260906064459 | 67 | 28 | 5.2 | 7.0 | 0.00 | 0.00 | 0.00 | 88 | 1016.5 |
| 20260906063954 | 67 | 39 | 5.2 | 7.0 | 0.00 | 0.00 | 0.00 | 89 | 1016.5 |
| 20260906063450 | 67 | 33 | 4.3 | 5.2 | 0.00 | 0.00 | 0.00 | 89 | 1016.5 |
| 20260906062949 | 66 | 43 | 3.5 | 5.2 | 0.00 | 0.00 | 0.00 | 89 | 1016.5 |
| 20260906062445 | 66 | 31 | 3.5 | 4.3 | 0.00 | 0.00 | 0.00 | 90 | 1016.5 |
| 20260906061940 | 66 | 42 | 4.3 | 6.1 | 0.00 | 0.00 | 0.00 | 89 | 1016.5 |
| 20260906061436 | 67 | 39 | 3.5 | 5.2 | 0.00 | 0.00 | 0.00 | 89 | 1016.5 |
| 20260906060930 | 66 | 38 | 5.2 | 7.0 | 0.00 | 0.00 | 0.00 | 89 | 1016.5 |
| 20260906060427 | 66 | 52 | 4.3 | 8.7 | 0.00 | 0.00 | 0.00 | 89 | 1016.5 |
| 20260906055923 | 66 | 39 | 4.3 | 6.1 | 0.00 | 0.00 | 0.00 | 89 | 1016.5 |
| 20260906055419 | 66 | 45 | 5.2 | 7.8 | 0.00 | 0.00 | 0.00 | 90 | 1016.5 |
| 20260906054914 | 65 | 46 | 5.2 | 7.8 | 0.00 | 0.00 | 0.00 | 91 | 1016.5 |
| 20260906054409 | 65 | 40 | 4.3 | 7.8 | 0.00 | 0.00 | 0.00 | 93 | 1016.5 |
| 20260906053905 | 64 | 37 | 5.2 | 7.0 | 0.00 | 0.00 | 0.00 | 94 | 1016.1 |
| 20260906053401 | 64 | 51 | 3.5 | 5.2 | 0.00 | 0.00 | 0.00 | 96 | 1016.1 |
| 20260906052856 | 64 | 51 | 2.6 | 3.5 | 0.00 | 0.00 | 0.00 | 97 | 1016.1 |
| 20260906052352 | 64 | 51 | 2.6 | 3.5 | 0.00 | 0.00 | 0.00 | 97 | 1016.1 |
| 20260906051849 | 64 | 51 | 2.6 | 2.6 | 0.00 | 0.00 | 0.00 | 97 | 1016.1 |
| 20260906051349 | 65 | 51 | 1.7 | 1.7 | 0.00 | 0.00 | 0.00 | 96 | 1016.1 |
| 20260906050845 | 65 | 51 | 0.0 | 1.7 | 0.00 | 0.00 | 0.00 | 96 | 1016.1 |
| 20260906050339 | 65 | 51 | 1.7 | 2.6 | 0.00 | 0.00 | 0.00 | 95 | 1016.1 |
| 20260906045838 | 66 | 51 | 2.6 | 3.5 | 0.00 | 0.00 | 0.00 | 95 | 1016.1 |
| 20260906045332 | 66 | 51 | 1.7 | 1.7 | 0.00 | 0.00 | 0.00 | 95 | 1016.1 |
| 20260906044829 | 65 | 51 | 0.9 | 1.7 | 0.00 | 0.00 | 0.00 | 96 | 1016.1 |
| 20260906044329 | 66 | 51 | 0.9 | 1.7 | 0.00 | 0.00 | 0.00 | 96 | 1015.8 |
| 20260906043826 | 66 | 51 | 2.6 | 5.2 | 0.00 | 0.00 | 0.00 | 96 | 1015.8 |
| 20260906043321 | 66 | 51 | 2.6 | 3.5 | 0.00 | 0.00 | 0.00 | 95 | 1015.8 |
| 20260906042821 | 66 | 51 | 3.5 | 4.3 | 0.00 | 0.00 | 0.00 | 95 | 1015.4 |
| 20260906042320 | 66 | 51 | 1.7 | 3.5 | 0.00 | 0.00 | 0.00 | 96 | 1015.4 |
| 20260906041815 | 66 | 51 | 2.6 | 4.3 | 0.00 | 0.00 | 0.00 | 95 | 1015.4 |
| 20260906041310 | 67 | 51 | 4.3 | 5.2 | 0.00 | 0.00 | 0.00 | 95 | 1015.4 |
| 20260906040805 | 67 | 51 | 2.6 | 5.2 | 0.00 | 0.00 | 0.00 | 95 | 1015.4 |
| 20260906040301 | 67 | 48 | 4.3 | 5.2 | 0.00 | 0.00 | 0.00 | 95 | 1015.4 |
| 20260906035756 | 67 | 50 | 3.5 | 5.2 | 0.00 | 1.29 | 1.29 | 96 | 1015.4 |
| 20260906035252 | 67 | 54 | 4.3 | 6.1 | 0.00 | 1.29 | 1.29 | 98 | 1015.8 |
| 20260906034752 | 67 | 43 | 3.5 | 4.3 | 0.00 | 1.29 | 1.29 | 99 | 1015.8 |
| 20260906034252 | 68 | 43 | 2.6 | 3.5 | 0.00 | 1.29 | 1.29 | 99 | 1015.8 |
| 20260906033748 | 68 | 43 | 3.5 | 6.1 | 0.00 | 1.29 | 1.29 | 98 | 1015.8 |
| 20260906033247 | 68 | 75 | 3.5 | 4.3 | 0.00 | 1.29 | 1.29 | 98 | 1015.8 |
| 20260906032743 | 68 | 75 | 2.6 | 3.5 | 0.00 | 1.29 | 1.29 | 98 | 1015.4 |
| 20260906032243 | 68 | 53 | 3.5 | 5.2 | 0.00 | 1.29 | 1.29 | 98 | 1015.4 |
| 20260906031738 | 69 | 52 | 3.5 | 5.2 | 0.00 | 1.29 | 1.29 | 98 | 1015.8 |
| 20260906031234 | 69 | 52 | 3.5 | 4.3 | 0.00 | 1.29 | 1.29 | 98 | 1015.8 |
| 20260906030729 | 69 | 52 | 3.5 | 5.2 | 0.00 | 1.29 | 1.29 | 97 | 1015.8 |
| 20260906030224 | 70 | 52 | 3.5 | 4.3 | 0.00 | 1.29 | 1.29 | 97 | 1015.8 |
| 20260906025723 | 70 | 50 | 3.5 | 5.2 | 0.00 | 1.29 | 1.29 | 96 | 1015.8 |
| 20260906025218 | 70 | 60 | 6.1 | 8.7 | 0.00 | 1.29 | 1.29 | 96 | 1015.8 |
| 20260906024717 | 71 | 49 | 4.3 | 6.1 | 0.00 | 1.29 | 1.29 | 95 | 1015.8 |
| 20260906024216 | 71 | 58 | 5.2 | 7.8 | 0.00 | 1.29 | 1.29 | 95 | 1015.8 |
| 20260906023712 | 71 | 54 | 5.2 | 7.0 | 0.00 | 1.29 | 1.29 | 95 | 1015.8 |
| 20260906023207 | 71 | 54 | 6.1 | 9.6 | 0.00 | 1.29 | 1.29 | 95 | 1015.8 |
| 20260906022702 | 72 | 49 | 6.1 | 9.6 | 0.00 | 1.29 | 1.29 | 95 | 1015.8 |
| 20260906022158 | 72 | 66 | 4.3 | 7.0 | 0.00 | 1.29 | 1.29 | 96 | 1015.8 |
| 20260906021653 | 72 | 45 | 5.2 | 7.0 | 0.00 | 1.29 | 1.29 | 96 | 1015.8 |
| 20260906021151 | 72 | 64 | 4.3 | 7.0 | 0.00 | 1.29 | 1.29 | 97 | 1015.8 |
| 20260906020641 | 73 | 67 | 6.1 | 10.4 | 0.00 | 1.29 | 1.29 | 97 | 1015.4 |
| 20260906020136 | 73 | 68 | 6.1 | 7.8 | 0.00 | 1.29 | 1.29 | 99 | 1015.4 |
| 20260906015630 | 73 | 72 | 5.2 | 7.8 | 0.00 | 1.29 | 1.29 | 99 | 1015.4 |
| 20260906015128 | 73 | 78 | 3.5 | 4.3 | 0.00 | 1.29 | 1.29 | 99 | 1015.4 |
| 20260906014623 | 73 | 30 | 3.5 | 5.2 | 0.00 | 1.29 | 1.29 | 99 | 1015.4 |
| 20260906014119 | 73 | 44 | 4.3 | 6.1 | 0.00 | 1.29 | 1.29 | 99 | 1015.4 |
| 20260906013615 | 73 | 63 | 3.5 | 4.3 | 0.00 | 1.29 | 1.29 | 99 | 1015.4 |
| 20260906013110 | 73 | 66 | 3.5 | 5.2 | 0.00 | 1.29 | 1.29 | 99 | 1015.4 |
| 20260906012605 | 73 | 53 | 4.3 | 6.1 | 0.00 | 1.29 | 1.29 | 99 | 1015.1 |
| 20260906012104 | 73 | 50 | 5.2 | 8.7 | 0.00 | 1.29 | 1.29 | 100 | 1015.1 |
| 20260906011601 | 73 | 40 | 5.2 | 6.1 | 0.00 | 1.29 | 1.29 | 100 | 1015.1 |
| 20260906011055 | 73 | 41 | 7.0 | 8.7 | 0.00 | 1.29 | 1.29 | 100 | 1015.1 |
| 20260906010551 | 73 | 29 | 4.3 | 5.2 | 0.00 | 1.29 | 1.29 | 100 | 1015.1 |
| 20260906010047 | 73 | 43 | 5.2 | 8.7 | 0.00 | 1.29 | 1.29 | 100 | 1014.8 |
| 20260906005546 | 73 | 46 | 6.1 | 7.8 | 0.00 | 1.29 | 1.29 | 100 | 1014.8 |
| 20260906005045 | 73 | 41 | 5.2 | 8.7 | 0.00 | 1.29 | 1.29 | 100 | 1014.8 |
| 20260906004544 | 73 | 42 | 5.2 | 7.8 | 0.00 | 1.29 | 1.29 | 100 | 1014.8 |
| 20260906004039 | 73 | 45 | 4.3 | 6.1 | 0.00 | 1.29 | 1.29 | 100 | 1014.4 |
| 20260906003535 | 73 | 45 | 3.5 | 5.2 | 0.00 | 1.29 | 1.29 | 99 | 1014.4 |
| 20260906003031 | 73 | 45 | 2.6 | 4.3 | 0.00 | 1.29 | 1.29 | 99 | 1014.4 |
| 20260906002530 | 73 | 45 | 2.6 | 4.3 | 0.00 | 1.29 | 1.29 | 98 | 1014.4 |
| 20260906002025 | 73 | 45 | 3.5 | 5.2 | 0.00 | 1.29 | 1.29 | 98 | 1014.4 |
| 20260906001521 | 73 | 36 | 4.3 | 7.8 | 0.00 | 1.29 | 1.29 | 97 | 1014.4 |
| 20260906001021 | 74 | 47 | 3.5 | 5.2 | 0.00 | 1.29 | 1.29 | 97 | 1014.4 |
| 20260906000517 | 74 | 39 | 5.2 | 7.0 | 0.00 | 1.29 | 1.29 | 97 | 1014.1 |
| 20260906000012 | 74 | 35 | 4.3 | 6.1 | 0.00 | 1.29 | 1.29 | 97 | 1014.1 |
| 20260905235505 | 74 | 29 | 2.6 | 2.6 | 0.00 | 1.29 | 1.29 | 97 | 1014.1 |
| 20260905235000 | 75 | 29 | 3.5 | 5.2 | 0.00 | 1.29 | 1.29 | 97 | 1014.1 |
| 20260905234450 | 75 | 26 | 5.2 | 7.0 | 0.00 | 1.29 | 1.29 | 96 | 1013.7 |
| 20260905233950 | 75 | 24 | 5.2 | 6.1 | 0.00 | 1.29 | 1.29 | 96 | 1013.7 |
| 20260905233445 | 76 | 36 | 5.2 | 7.8 | 0.00 | 1.29 | 1.29 | 96 | 1013.7 |
| 20260905232944 | 76 | 37 | 4.3 | 6.1 | 0.00 | 1.29 | 1.29 | 95 | 1014.1 |
| 20260905232441 | 76 | 35 | 6.1 | 7.8 | 0.00 | 1.29 | 1.29 | 95 | 1014.1 |
| 20260905231936 | 77 | 44 | 5.2 | 8.7 | 0.00 | 1.29 | 1.29 | 94 | 1014.1 |
| 20260905231432 | 77 | 47 | 4.3 | 6.1 | 0.00 | 1.29 | 1.29 | 94 | 1014.1 |
| 20260905230928 | 77 | 39 | 7.0 | 9.6 | 0.00 | 1.29 | 1.29 | 94 | 1014.1 |
| 20260905230426 | 78 | 40 | 6.1 | 9.6 | 0.00 | 1.29 | 1.29 | 94 | 1014.1 |
| 20260905225925 | 78 | 39 | 5.2 | 8.7 | 0.00 | 1.29 | 1.29 | 94 | 1014.1 |
| 20260905225420 | 78 | 23 | 7.0 | 9.6 | 0.00 | 1.29 | 1.29 | 93 | 1014.1 |
| 20260905224915 | 79 | 29 | 5.2 | 8.7 | 0.00 | 1.29 | 1.29 | 93 | 1013.7 |
| 20260905224411 | 79 | 22 | 6.1 | 7.8 | 0.00 | 1.29 | 1.29 | 92 | 1013.7 |
| 20260905223905 | 80 | 32 | 7.0 | 9.6 | 0.00 | 1.29 | 1.29 | 91 | 1013.7 |
| 20260905223403 | 80 | 30 | 6.1 | 7.8 | 0.00 | 1.29 | 1.29 | 91 | 1013.7 |
| 20260905222903 | 80 | 33 | 5.2 | 8.7 | 0.00 | 1.29 | 1.29 | 91 | 1013.4 |
| 20260905222402 | 80 | 23 | 7.0 | 8.7 | 0.00 | 1.29 | 1.29 | 91 | 1013.4 |
| 20260905221858 | 80 | 20 | 7.0 | 10.4 | 0.00 | 1.29 | 1.29 | 91 | 1013.4 |
| 20260905221355 | 81 | 29 | 7.0 | 9.6 | 0.00 | 1.29 | 1.29 | 91 | 1013.4 |
| 20260905220850 | 81 | 58 | 5.2 | 7.8 | 0.00 | 1.29 | 1.29 | 90 | 1013.1 |
| 20260905220346 | 82 | 44 | 5.2 | 8.7 | 0.00 | 1.29 | 1.29 | 89 | 1013.1 |
| 20260905215845 | 83 | 36 | 6.1 | 8.7 | 0.00 | 1.29 | 1.29 | 88 | 1013.1 |
| 20260905215341 | 82 | 36 | 5.2 | 7.8 | 0.00 | 1.29 | 1.29 | 89 | 1013.1 |
| 20260905214832 | 82 | 29 | 6.1 | 7.8 | 0.00 | 1.29 | 1.29 | 88 | 1013.4 |
| 20260905214327 | 82 | 11 | 7.0 | 10.4 | 0.00 | 1.29 | 1.29 | 88 | 1013.1 |
| 20260905213822 | 83 | 34 | 5.2 | 7.8 | 0.00 | 1.29 | 1.29 | 88 | 1013.1 |
| 20260905213318 | 83 | 32 | 5.2 | 7.8 | 0.00 | 1.29 | 1.29 | 88 | 1013.1 |
| 20260905212813 | 83 | 14 | 5.2 | 7.0 | 0.00 | 1.29 | 1.29 | 88 | 1012.6 |
| 20260905212312 | 83 | 12 | 7.0 | 8.7 | 0.00 | 1.29 | 1.29 | 87 | 1013.1 |
| 20260905211807 | 83 | 11 | 6.1 | 8.7 | 0.00 | 1.29 | 1.29 | 86 | 1013.1 |
| 20260905211302 | 83 | 355 | 7.0 | 8.7 | 0.00 | 1.29 | 1.29 | 87 | 1013.1 |
| 20260905210759 | 83 | 0 | 5.2 | 7.8 | 0.00 | 1.29 | 1.29 | 88 | 1013.4 |
| 20260905210258 | 83 | 358 | 6.1 | 8.7 | 0.00 | 1.29 | 1.29 | 87 | 1013.1 |
| 20260905205757 | 83 | 20 | 5.2 | 7.0 | 0.00 | 1.29 | 1.29 | 88 | 1013.1 |
| 20260905205252 | 82 | 8 | 5.2 | 7.0 | 0.00 | 1.29 | 1.29 | 89 | 1013.1 |
| 20260905204751 | 82 | 20 | 5.2 | 7.0 | 0.00 | 1.29 | 1.29 | 89 | 1013.4 |
| 20260905204248 | 82 | 19 | 6.1 | 7.8 | 0.00 | 1.29 | 1.29 | 87 | 1013.4 |
| 20260905203747 | 83 | 3 | 5.2 | 7.8 | 0.00 | 1.29 | 1.29 | 86 | 1013.4 |
| 20260905203242 | 83 | 12 | 5.2 | 7.0 | 0.00 | 1.29 | 1.29 | 85 | 1013.4 |
| 20260905202737 | 84 | 347 | 5.2 | 7.8 | 0.00 | 1.29 | 1.29 | 85 | 1013.4 |
| 20260905202232 | 84 | 347 | 5.2 | 6.1 | 0.00 | 1.29 | 1.29 | 85 | 1013.4 |
| 20260905201728 | 84 | 347 | 5.2 | 6.1 | 0.00 | 1.29 | 1.29 | 85 | 1013.7 |
| 20260905201223 | 84 | 347 | 3.5 | 5.2 | 0.00 | 1.29 | 1.29 | 84 | 1013.7 |
| 20260905200718 | 85 | 347 | 3.5 | 4.3 | 0.00 | 1.29 | 1.29 | 82 | 1013.4 |
| 20260905200214 | 85 | 347 | 4.3 | 5.2 | 0.00 | 1.29 | 1.29 | 82 | 1013.4 |
| 20260905195712 | 85 | 345 | 6.1 | 7.0 | 0.00 | 1.29 | 1.29 | 83 | 1013.4 |
| 20260905195212 | 85 | 340 | 3.5 | 7.0 | 0.00 | 1.29 | 1.29 | 82 | 1013.4 |
| 20260905194707 | 84 | 340 | 3.5 | 5.2 | 0.00 | 1.29 | 1.29 | 84 | 1013.4 |
| 20260905194207 | 84 | 340 | 3.5 | 5.2 | 0.00 | 1.29 | 1.29 | 84 | 1013.7 |
| 20260905193701 | 84 | 340 | 2.6 | 3.5 | 0.00 | 1.29 | 1.29 | 82 | 1013.7 |
| 20260905193156 | 85 | 294 | 0.0 | 1.7 | 0.00 | 1.29 | 1.29 | 82 | 1013.7 |
| 20260905192652 | 85 | 294 | 1.7 | 4.3 | 0.00 | 1.29 | 1.29 | 83 | 1013.7 |
| 20260905192149 | 84 | 294 | 1.7 | 2.6 | 0.00 | 1.29 | 1.29 | 82 | 1014.1 |
| 20260905191648 | 84 | 294 | 2.6 | 3.5 | 0.00 | 1.29 | 1.29 | 82 | 1014.1 |
| 20260905191146 | 84 | 294 | 2.6 | 3.5 | 0.00 | 1.29 | 1.29 | 83 | 1014.1 |
| 20260905190644 | 84 | 283 | 4.3 | 7.0 | 0.00 | 1.29 | 1.29 | 80 | 1014.1 |
| 20260905190144 | 85 | 280 | 4.3 | 6.1 | 0.00 | 1.29 | 1.29 | 81 | 1014.1 |
| 20260905185637 | 85 | 281 | 3.5 | 3.5 | 0.00 | 1.29 | 1.29 | 80 | 1014.1 |
| 20260905185132 | 85 | 269 | 4.3 | 9.6 | 0.00 | 1.29 | 1.29 | 81 | 1014.1 |
| 20260905184631 | 84 | 269 | 3.5 | 6.1 | 0.00 | 1.29 | 1.29 | 81 | 1014.4 |
| 20260905184131 | 86 | 277 | 3.5 | 5.2 | 0.00 | 1.29 | 1.29 | 80 | 1014.1 |
| 20260905183630 | 86 | 276 | 4.3 | 6.1 | 0.00 | 1.29 | 1.29 | 80 | 1014.1 |
| 20260905183126 | 85 | 266 | 2.6 | 3.5 | 0.00 | 1.29 | 1.29 | 80 | 1014.1 |
| 20260905182625 | 84 | 266 | 2.6 | 3.5 | 0.00 | 1.29 | 1.29 | 81 | 1014.1 |
| 20260905182119 | 85 | 277 | 3.5 | 5.2 | 0.00 | 1.29 | 1.29 | 80 | 1014.1 |
| 20260905181614 | 85 | 266 | 5.2 | 7.8 | 0.00 | 1.29 | 1.29 | 79 | 1014.1 |
| 20260905181113 | 85 | 294 | 5.2 | 7.0 | 0.00 | 1.29 | 1.29 | 79 | 1014.1 |
| 20260905180609 | 84 | 263 | 3.5 | 6.1 | 0.00 | 1.29 | 1.29 | 82 | 1014.1 |
| 20260905180104 | 84 | 261 | 5.2 | 7.8 | 0.00 | 1.29 | 1.29 | 81 | 1014.4 |
| 20260905175603 | 84 | 302 | 5.2 | 7.8 | 0.00 | 1.29 | 1.29 | 81 | 1014.4 |
| 20260905175058 | 84 | 289 | 2.6 | 4.3 | 0.00 | 1.29 | 1.29 | 82 | 1014.4 |
| 20260905174554 | 84 | 289 | 1.7 | 3.5 | 0.00 | 1.29 | 1.29 | 81 | 1014.4 |
| 20260905174049 | 84 | 310 | 0.0 | 2.6 | 0.00 | 1.29 | 1.29 | 83 | 1014.4 |
| 20260905173546 | 83 | 310 | 1.7 | 3.5 | 0.00 | 1.29 | 1.29 | 83 | 1014.4 |
| 20260905173041 | 83 | 310 | 0.0 | 0.0 | 0.00 | 1.29 | 1.29 | 82 | 1014.4 |
| 20260905172539 | 82 | 310 | 1.7 | 3.5 | 0.00 | 1.29 | 1.29 | 84 | 1014.8 |
| 20260905172035 | 82 | 310 | 3.5 | 5.2 | 0.00 | 1.29 | 1.29 | 84 | 1014.4 |
| 20260905171531 | 81 | 310 | 1.7 | 2.6 | 0.00 | 1.29 | 1.29 | 87 | 1014.4 |
| 20260905171027 | 81 | 310 | 1.7 | 3.5 | 0.00 | 1.29 | 1.29 | 87 | 1014.4 |
| 20260905170523 | 80 | 310 | 3.5 | 5.2 | 0.00 | 1.29 | 1.29 | 86 | 1014.4 |
| 20260905170018 | 80 | 310 | 0.9 | 3.5 | 0.00 | 1.29 | 1.29 | 88 | 1014.8 |
| 20260905165513 | 79 | 310 | 2.6 | 4.3 | 0.00 | 1.29 | 1.29 | 89 | 1014.4 |
| 20260905165008 | 78 | 310 | 1.7 | 2.6 | 0.00 | 1.29 | 1.29 | 89 | 1014.8 |
| 20260905164502 | 78 | 310 | 1.7 | 3.5 | 0.00 | 1.29 | 1.29 | 91 | 1014.8 |
| 20260905163956 | 77 | 310 | 1.7 | 2.6 | 0.00 | 1.29 | 1.29 | 92 | 1014.8 |
| 20260905163453 | 76 | 310 | 0.9 | 2.6 | 0.00 | 1.29 | 1.29 | 94 | 1014.8 |
| 20260905162949 | 75 | 310 | 0.0 | 1.7 | 0.00 | 1.29 | 1.29 | 95 | 1014.8 |
| 20260905162444 | 75 | 310 | 0.0 | 0.9 | 0.00 | 1.29 | 1.29 | 97 | 1014.8 |
| 20260905161939 | 73 | 310 | 0.9 | 3.5 | 0.00 | 1.29 | 1.29 | 99 | 1015.1 |
| 20260905161438 | 72 | 310 | 2.6 | 3.5 | 0.00 | 1.29 | 1.29 | 99 | 1015.4 |
| 20260905160936 | 71 | 310 | 0.0 | 0.0 | 0.00 | 1.29 | 1.29 | 100 | 1015.4 |
| 20260905160431 | 71 | 310 | 0.0 | 0.0 | 0.00 | 1.29 | 1.29 | 100 | 1015.4 |
| 20260905155930 | 71 | 310 | 0.9 | 1.7 | 0.00 | 1.29 | 1.29 | 100 | 1015.1 |
| 20260905155425 | 71 | 310 | 1.7 | 2.6 | 0.00 | 1.29 | 1.29 | 100 | 1015.1 |
| 20260905154923 | 71 | 310 | 1.7 | 3.5 | 0.00 | 1.29 | 1.29 | 100 | 1015.4 |
| 20260905154419 | 71 | 310 | 3.5 | 4.3 | 0.00 | 1.29 | 1.29 | 100 | 1015.4 |
| 20260905153915 | 71 | 310 | 3.5 | 4.3 | 0.00 | 1.29 | 1.29 | 100 | 1015.4 |
| 20260905153411 | 71 | 310 | 1.7 | 2.6 | 0.00 | 1.29 | 1.29 | 100 | 1015.4 |
| 20260905152910 | 71 | 310 | 3.5 | 3.5 | 0.00 | 1.29 | 1.29 | 100 | 1015.4 |
| 20260905152409 | 71 | 310 | 3.5 | 5.2 | 0.00 | 1.29 | 1.29 | 100 | 1015.4 |
| 20260905151905 | 71 | 3 | 0.0 | 0.0 | 0.00 | 1.29 | 1.29 | 100 | 1015.1 |
| 20260905151400 | 71 | 3 | 3.5 | 4.3 | 0.00 | 1.29 | 1.29 | 100 | 1015.1 |
| 20260905150855 | 71 | 3 | 3.5 | 3.5 | 0.00 | 1.29 | 1.29 | 100 | 1015.4 |
| 20260905150354 | 71 | 212 | 0.0 | 0.0 | 0.00 | 1.29 | 1.29 | 99 | 1015.1 |
| 20260905145851 | 71 | 212 | 0.0 | 0.0 | 0.00 | 1.29 | 1.29 | 99 | 1014.8 |
| 20260905145346 | 72 | 212 | 0.0 | 0.0 | 0.00 | 1.29 | 1.29 | 99 | 1014.8 |
| 20260905144845 | 72 | 212 | 0.0 | 0.0 | 0.00 | 1.29 | 1.29 | 98 | 1014.8 |
| 20260905144341 | 72 | 212 | 0.0 | 0.0 | 0.00 | 1.29 | 1.29 | 98 | 1014.8 |
| 20260905143839 | 72 | 212 | 0.0 | 0.0 | 0.00 | 1.29 | 1.29 | 98 | 1014.8 |
| 20260905143334 | 72 | 212 | 0.0 | 0.0 | 0.00 | 1.29 | 1.29 | 97 | 1014.8 |
| 20260905142833 | 72 | 212 | 0.0 | 0.0 | 0.00 | 0.47 | 0.47 | 97 | 1014.4 |
| 20260905104323 | 67 | 53 | 5.2 | 8.7 | 1.89 | 0.44 | 0.44 | 100 | 1016.5 |
| 20260905103822 | 67 | 53 | 5.2 | 8.7 | 1.89 | 0.44 | 0.44 | 100 | 1016.5 |
| 20260905103318 | 67 | 52 | 8.7 | 11.3 | 1.89 | 0.31 | 0.31 | 100 | 1016.1 |
| 20260905102814 | 67 | 64 | 8.7 | 11.3 | 0.94 | 0.22 | 0.22 | 100 | 1016.5 |
| 20260905102311 | 67 | 79 | 5.2 | 8.7 | 0.47 | 0.16 | 0.16 | 99 | 1016.5 |
| 20260905101810 | 67 | 89 | 6.1 | 8.7 | 0.00 | 0.13 | 0.13 | 99 | 1016.5 |
| 20260905101309 | 68 | 36 | 3.5 | 5.2 | 0.47 | 0.10 | 0.10 | 99 | 1016.5 |
| 20260905100803 | 67 | 27 | 6.1 | 8.7 | 0.00 | 0.09 | 0.09 | 99 | 1016.1 |
| 20260905100300 | 67 | 23 | 7.0 | 9.6 | 0.47 | 0.08 | 0.08 | 99 | 1015.8 |
| 20260905095759 | 67 | 28 | 6.1 | 8.7 | 0.00 | 0.07 | 0.07 | 99 | 1015.8 |